CW9688 Weather Reports


time (UTC)temp
F
wind
direction
speed
knots
gust
knots
rain 1hr
in
rain 24hr
in
rain mn
in
humidity
%
barometer
mb
20240420170305 35 316 5.2 7.0 0.00 0.47 0.42 86 1028.9
20240420165804 36 298 4.3 7.0 0.00 0.47 0.42 86 1028.8
20240420163803 36 352 5.2 7.0 0.00 0.48 0.42 87 1028.7
20240420163305 36 324 4.3 6.1 0.00 0.48 0.42 86 1028.9
20240420162304 36 324 2.6 5.2 0.00 0.48 0.42 87 1028.9
20240420161304 36 340 4.3 6.1 0.00 0.49 0.42 87 1028.8
20240420153803 35 352 2.6 5.2 0.01 0.52 0.42 90 1029.5
20240420153304 35 355 2.6 5.2 0.01 0.52 0.42 91 1029.5
20240420151305 34 47 2.6 2.6 0.01 0.54 0.42 92 1029.5
20240420150804 34 93 1.7 4.3 0.02 0.54 0.42 93 1029.5
20240420144303 33 77 0.0 0.0 0.06 0.54 0.41 94 1029.7
20240420142804 33 71 0.0 0.0 0.09 0.55 0.41 94 1029.8
20240420141304 32 71 0.0 0.0 0.12 0.56 0.41 94 1029.8
20240420135804 32 71 0.0 0.0 0.12 0.54 0.38 94 1029.7
20240420132305 31 71 0.0 0.0 0.15 0.49 0.32 94 1029.6
20240420131804 31 71 0.0 0.0 0.14 0.47 0.30 94 1029.6
20240420131305 31 71 0.0 0.0 0.15 0.46 0.29 94 1029.6
20240420130805 31 71 0.0 0.0 0.15 0.45 0.28 95 1029.6
20240420124804 31 71 0.0 0.0 0.17 0.41 0.24 94 1029.7
20240420123805 31 71 0.0 0.0 0.17 0.38 0.21 95 1029.5
20240420123305 31 71 0.0 0.0 0.17 0.37 0.20 95 1029.7
20240420122304 31 71 0.0 0.0 0.16 0.34 0.17 95 1029.4
20240420120805 31 71 0.0 0.0 0.13 0.30 0.13 95 1029.6
20240420120306 31 71 0.0 0.0 0.11 0.28 0.11 95 1029.6
20240420115804 31 71 0.0 0.0 0.10 0.27 0.10 95 1029.6
20240420115304 31 71 0.0 0.0 0.09 0.26 0.09 95 1029.6
20240420113805 31 71 0.0 0.0 0.04 0.21 0.04 95 1029.6
20240420113305 31 71 0.0 0.0 0.03 0.20 0.03 95 1029.6
20240420112305 31 71 0.0 0.0 0.01 0.18 0.01 95 1029.8
20240420111305 31 71 0.0 0.0 0.00 0.17 0.00 95 1029.8
20240420110805 31 71 0.0 0.0 0.00 0.17 0.00 95 1029.8
20240420105806 31 71 0.0 0.0 0.00 0.17 0.00 95 1029.8
20240420105305 31 71 0.0 0.0 0.00 0.17 0.00 95 1029.8
20240420104304 31 75 0.0 0.0 0.00 0.17 0.00 95 1030.0
20240420102805 31 75 0.0 0.0 0.00 0.17 0.00 95 1030.1
20240420102305 31 75 0.0 0.0 0.00 0.17 0.00 95 1030.1
20240420101305 31 75 0.0 0.0 0.00 0.17 0.00 94 1030.1
20240420100804 31 75 0.0 0.0 0.00 0.17 0.00 94 1030.1
20240420094305 31 75 0.0 0.0 0.00 0.17 0.00 95 1030.4
20240420093804 31 75 0.0 0.0 0.00 0.17 0.00 94 1030.4
20240420093305 31 75 0.0 0.0 0.00 0.17 0.00 95 1030.4
20240420092805 31 75 0.0 0.0 0.00 0.17 0.00 95 1030.4
20240420092305 31 75 0.0 0.0 0.00 0.17 0.00 95 1030.4
20240420090806 31 75 0.0 0.0 0.00 0.17 0.00 94 1030.4
20240420085805 31 75 0.0 0.0 0.00 0.17 0.00 95 1030.4
20240420084805 31 75 0.0 0.0 0.00 0.17 0.00 94 1030.6
20240420075804 31 75 0.0 0.0 0.00 0.18 0.00 94 1031.0
20240420075305 31 75 0.0 0.0 0.00 0.18 0.00 94 1031.0
20240420073304 31 75 0.0 0.0 0.00 0.18 0.00 94 1031.0
20240420072805 31 75 0.0 0.0 0.00 0.18 0.00 94 1031.0
20240420072305 31 75 0.0 0.0 0.00 0.18 0.00 94 1031.0
20240420070805 31 75 0.0 0.0 0.00 0.18 0.00 94 1031.1
20240420070305 31 75 0.0 0.0 0.00 0.18 0.00 94 1031.2
20240420064304 31 75 0.0 0.0 0.00 0.18 0.00 95 1031.0
20240420063805 31 75 0.0 0.0 0.00 0.18 0.00 94 1031.0
20240420062805 31 75 0.0 0.0 0.00 0.18 0.00 94 1031.0
20240420062304 31 75 0.0 0.0 0.00 0.18 0.00 94 1031.1
20240420061804 31 75 0.0 0.0 0.00 0.18 0.00 94 1031.1
20240420061304 31 75 0.0 0.0 0.00 0.18 0.00 94 1031.2
20240420060820 31 75 0.0 0.0 0.00 0.18 0.00 94 1031.2
20240420060305 31 75 0.0 0.0 0.00 0.18 0.00 95 1031.2
20240420055805 31 75 0.0 0.0 0.00 0.18 0.18 95 1031.2
20240420055304 31 75 0.0 0.0 0.00 0.18 0.18 94 1031.3
20240420054804 31 75 0.0 0.0 0.00 0.18 0.18 94 1031.3
20240420054306 31 75 0.0 0.0 0.00 0.18 0.18 94 1031.3
20240420053804 31 75 0.0 0.0 0.00 0.18 0.18 94 1031.3
20240420052805 32 75 0.0 0.0 0.00 0.18 0.18 95 1031.1
20240420052304 32 74 0.0 0.0 0.00 0.18 0.18 95 1031.3
20240420051306 32 74 0.0 0.0 0.00 0.18 0.18 95 1031.3
20240420045804 32 49 0.0 0.0 0.00 0.18 0.18 95 1031.3
20240420045304 32 49 0.0 0.0 0.00 0.18 0.18 95 1031.4
20240420043804 32 63 0.0 0.0 0.00 0.18 0.18 94 1031.3
20240420042805 32 30 0.0 0.0 0.00 0.18 0.18 94 1031.3
20240420041305 32 68 0.0 0.0 0.00 0.18 0.18 94 1030.9
20240420040304 32 61 0.0 0.0 0.00 0.18 0.18 94 1030.9
20240420035804 32 75 0.0 0.0 0.00 0.18 0.18 94 1030.9
20240420034304 32 74 0.0 0.0 0.00 0.18 0.18 94 1030.9
20240420033805 33 74 0.0 0.0 0.00 0.18 0.18 94 1030.9
20240420032305 33 72 0.0 0.0 0.00 0.18 0.18 94 1030.9
20240420025304 33 80 0.0 0.0 0.00 0.18 0.18 94 1030.7
20240420024804 33 80 0.0 0.0 0.00 0.18 0.18 94 1030.4
20240420023805 33 81 0.0 0.0 0.00 0.18 0.18 94 1030.2
20240420023305 33 81 0.0 0.0 0.00 0.18 0.18 94 1029.8
20240420022304 33 33 0.0 0.0 0.00 0.18 0.18 94 1029.8
20240420021805 33 33 0.0 0.0 0.00 0.18 0.18 94 1029.8
20240420021304 33 26 0.0 0.0 0.00 0.18 0.18 94 1029.8
20240420015804 33 26 0.0 0.0 0.01 0.18 0.18 94 1029.6
20240420015305 33 24 0.0 0.9 0.01 0.18 0.18 94 1029.5
20240420014305 33 18 0.0 0.9 0.01 0.18 0.18 94 1029.5
20240420012305 34 51 0.9 2.6 0.01 0.18 0.18 94 1029.1
20240420011804 34 32 0.9 2.6 0.01 0.18 0.18 94 1029.1
20240420011304 34 55 0.0 1.7 0.01 0.18 0.18 93 1029.1
20240420010805 34 53 0.0 1.7 0.01 0.18 0.18 93 1029.1
20240420005304 34 75 0.9 2.6 0.01 0.17 0.17 93 1028.6
20240420003804 34 67 0.9 2.6 0.01 0.17 0.17 93 1028.6
20240420002305 34 87 0.9 1.7 0.01 0.17 0.17 93 1028.5
20240420001804 34 88 0.9 2.6 0.01 0.17 0.17 93 1028.5
20240420001304 34 90 0.9 2.6 0.02 0.17 0.17 93 1028.5
20240419235305 34 22 2.6 4.3 0.02 0.16 0.16 93 1028.6
20240419234304 35 15 1.7 4.3 0.02 0.16 0.16 93 1028.3
20240419233806 34 44 2.6 5.2 0.02 0.16 0.16 93 1028.3
20240419231805 34 33 3.5 7.8 0.02 0.16 0.16 93 1028.6
20240419231304 34 357 5.2 7.8 0.01 0.15 0.15 93 1028.3
20240419230803 34 10 4.3 7.0 0.01 0.15 0.15 93 1028.3
20240419225804 34 6 4.3 7.8 0.00 0.14 0.14 93 1027.9
20240419225304 34 3 4.3 7.0 0.00 0.14 0.14 93 1027.9
20240419224804 34 13 4.3 7.0 0.00 0.14 0.14 92 1027.8
20240419224304 34 10 4.3 7.8 0.00 0.14 0.14 92 1027.7
20240419223304 34 12 2.6 7.0 0.00 0.14 0.14 92 1027.5
20240419222804 34 356 4.3 7.8 0.00 0.14 0.14 92 1027.6
20240419222304 34 5 5.2 8.7 0.00 0.14 0.14 92 1027.6
20240419221304 35 1 6.1 10.4 0.00 0.14 0.14 91 1027.5
20240419215804 37 19 6.1 11.3 0.00 0.14 0.14 91 1027.3
20240419215304 37 355 7.8 13.0 0.00 0.14 0.14 90 1027.2
20240419213803 37 0 6.1 11.3 0.00 0.14 0.14 90 1027.3
20240419212804 37 1 7.8 12.2 0.00 0.14 0.14 89 1027.1
20240419212304 38 352 7.8 13.9 0.00 0.14 0.14 88 1027.0
20240419211805 39 15 5.2 13.9 0.00 0.14 0.14 87 1027.3
20240419210805 39 6 4.3 7.0 0.00 0.14 0.14 88 1027.1
20240419205304 38 346 7.0 11.3 0.00 0.14 0.14 87 1027.0
20240419204804 39 358 5.2 10.4 0.00 0.14 0.14 87 1026.8
20240419203803 39 24 6.1 10.4 0.00 0.14 0.14 88 1026.7
20240419203304 39 24 4.3 10.4 0.00 0.14 0.14 88 1026.7
20240419202805 39 357 6.1 10.4 0.00 0.15 0.14 88 1026.7
20240419201803 39 28 6.1 10.4 0.00 0.15 0.14 89 1026.8
20240419200303 39 20 6.1 10.4 0.00 0.15 0.14 89 1026.7
20240419195804 39 1 5.2 10.4 0.00 0.15 0.14 90 1026.6
20240419193803 39 342 5.2 12.2 0.00 0.15 0.14 90 1026.5
20240419193304 39 350 6.1 12.2 0.00 0.15 0.14 90 1026.4
20240419192304 38 336 6.1 11.3 0.01 0.15 0.14 88 1026.4
20240419190804 39 349 7.0 10.4 0.01 0.15 0.14 89 1026.5
20240419190304 39 337 5.2 8.7 0.01 0.15 0.14 89 1026.5
20240419185803 39 339 7.8 11.3 0.01 0.15 0.14 87 1026.6
20240419184804 39 356 8.7 11.3 0.01 0.15 0.14 87 1026.6
20240419184304 40 335 8.7 11.3 0.01 0.15 0.14 87 1026.6
20240419183804 40 318 6.1 13.0 0.01 0.15 0.14 87 1026.6
20240419182804 40 337 7.0 10.4 0.01 0.15 0.14 84 1026.6
20240419182303 40 330 5.2 13.0 0.00 0.14 0.13 85 1026.8
20240419181305 39 345 6.1 12.2 0.00 0.15 0.13 83 1026.7
20240419175304 40 323 7.8 13.0 0.00 0.15 0.13 83 1026.6
20240419174804 40 294 6.1 11.3 0.00 0.15 0.13 83 1026.5